Flag for Taiwan Weather past 2 weeks in Kaohsiung, Taiwan

Now
84 °F

Partly cloudy.


Feels Like: 98 °F
Forecast: 78 / 92 °F
Wind: 2 mph from Northeast

Location: Kaohsiung International Airport

Current Time: Sep 18, 2014 at 12:15:09 AM

Latest Report: Sep 17, 2014 at 11:30 PM


Visibility: 4 mi

Pressure: 29.92 "Hg

Humidity: 89%

Dew point: 81 °F

Location of KaohsiungLocation

Historic Weather in Kaohsiung — Graph

°F

Kaohsiung temperature yesterday

Maximum temperature yesterday: 91 °F (at 12:00 PM)
Minimum temperature yesterday: 82 °F (at 3:00 AM)
Average temperature yesterday: 87 °F

Past Weeks' High & Low Weather Summary

 TemperatureHumidityPressure
High99 °F (Sep 15, 12:30 PM)100% (Sep 12, 6:00 AM)29.95 "Hg (Sep 12, 6:00 AM)
Low77 °F (Sep 5, 5:00 AM)42% (Sep 15, 12:00 PM)29.56 "Hg (Sep 15, 4:00 AM)
Average86 °F78%29.76 "Hg
* Reported Sep 2 11:00 PM — Sep 17 11:00 PM, Kaohsiung, Weather by CustomWeather, © 2014

Note: Actual official high and low records may vary slightly from our data, if they occured in-between our weather recording intervals... More about our weather records

Advertising

Kaohsiung weather history for previous 24 hours

 ConditionsComfort  
Time TempWeatherWind HumidityBarometerVisibility
11:00 PM
Sep 17
86 °FPartly cloudy.2 mph84%29.92 "Hg4 mi
10:30 PM86 °FPartly cloudy.2 mph79%29.92 "Hg4 mi
10:00 PM84 °FPartly cloudy.3 mph84%29.92 "Hg4 mi
9:30 PM84 °FPartly cloudy.2 mph89%29.92 "Hg4 mi
9:00 PM84 °FPartly cloudy.6 mph89%29.92 "Hg4 mi
8:30 PM84 °FPartly cloudy.3 mph89%29.92 "Hg4 mi
7:30 PM86 °FPassing clouds.7 mph79%29.92 "Hg6 mi
7:00 PM86 °FPartly cloudy.7 mph79%29.92 "HgN/A
6:30 PM86 °FPartly cloudy.8 mph79%29.89 "HgN/A
6:00 PM86 °FPartly cloudy.10 mph79%29.89 "HgN/A
5:30 PM86 °FBroken clouds.9 mph79%29.89 "HgN/A
5:00 PM86 °FBroken clouds.12 mph79%29.89 "HgN/A
4:30 PM86 °FSprinkles. Broken clouds.10 mph79%29.89 "HgN/A
4:00 PM86 °FThundershowers. Partly sunny.12 mph84%29.89 "HgN/A
3:30 PM88 °FThundershowers. Partly sunny.12 mph79%29.86 "HgN/A
3:00 PM91 °FBroken clouds.13 mph71%29.86 "HgN/A
2:30 PM90 °FBroken clouds.16 mph75%29.86 "HgN/A
2:00 PM91 °FBroken clouds.16 mph71%29.89 "HgN/A
1:30 PM91 °FBroken clouds.14 mph71%29.89 "HgN/A
1:00 PM90 °FScattered clouds.13 mph75%29.89 "Hg5 mi
12:30 PM90 °FScattered clouds.15 mph75%29.92 "Hg4 mi
12:00 PM91 °FScattered clouds.14 mph71%29.92 "Hg4 mi
11:30 AM90 °FScattered clouds.12 mph75%29.92 "Hg4 mi
11:00 AM90 °FScattered clouds.12 mph75%29.92 "Hg5 mi
10:30 AM90 °FScattered clouds.8 mph75%29.92 "Hg4 mi
10:00 AM88 °FScattered clouds.9 mph79%29.92 "Hg4 mi
9:30 AM86 °FScattered clouds.7 mph84%29.95 "Hg5 mi
9:00 AM90 °FFog.N/A75%29.95 "HgN/A
8:30 AM88 °FScattered clouds.3 mph75%29.92 "Hg6 mi
8:00 AM86 °FScattered clouds.6 mph79%29.92 "Hg5 mi
7:30 AM84 °FPassing clouds.7 mph84%29.92 "Hg4 mi
7:00 AM84 °FScattered clouds.7 mph84%29.92 "Hg5 mi
6:00 AM82 °FScattered clouds.2 mph89%29.89 "Hg5 mi
5:00 AM82 °FPartly cloudy.5 mph89%29.89 "Hg5 mi
4:00 AM82 °FPassing clouds.3 mph89%29.89 "HgN/A
3:00 AM82 °FPassing clouds.7 mph89%29.89 "HgN/A
2:00 AM84 °FPassing clouds.7 mph84%29.89 "HgN/A
1:00 AM84 °FPassing clouds.6 mph84%29.89 "Hg5 mi
12:00 AM86 °FPartly cloudy.6 mph75%29.89 "Hg5 mi
Weather by CustomWeather, © 2014

See weather overviewHow to use our weather pages